FW5910 Weather Reports


time (UTC)temp
C
wind
direction
speed
KPH
gust
KPH
rain 1hr
cm
rain 24hr
cm
rain mn
cm
humidity
%
barometer
mb
20220627201148 26 92 1.6 4.8 0.00 0.00 0.00 30 1019.3
20220627200642 26 90 3.2 6.4 0.00 0.00 0.00 31 1019.3
20220627200142 26 111 3.2 6.4 0.00 0.00 0.00 33 1019.5
20220627195640 26 130 3.2 6.4 0.00 0.00 0.00 32 1019.5
20220627195139 26 154 3.2 6.4 0.00 0.00 0.00 28 1019.6
20220627194638 26 194 3.2 6.4 0.00 0.00 0.00 31 1019.6
20220627194139 26 100 3.2 6.4 0.00 0.00 0.00 33 1019.8
20220627193636 25 102 3.2 4.8 0.00 0.00 0.00 32 1019.8
20220627193136 25 104 3.2 6.4 0.00 0.00 0.00 33 1019.9
20220627192636 25 103 4.8 6.4 0.00 0.00 0.00 35 1019.9
20220627192134 25 105 4.8 11.3 0.00 0.00 0.00 36 1020.0
20220627191634 25 104 4.8 11.3 0.00 0.00 0.00 32 1020.0
20220627191135 26 97 3.2 9.7 0.00 0.00 0.00 31 1020.0
20220627190636 26 85 1.6 6.4 0.00 0.00 0.00 31 1020.1
20220627190137 26 86 1.6 6.4 0.00 0.00 0.00 31 1020.3
20220627185634 25 82 1.6 4.8 0.00 0.00 0.00 31 1020.3
20220627185135 25 74 3.2 4.8 0.00 0.00 0.00 31 1020.3
20220627184632 25 87 3.2 4.8 0.00 0.00 0.00 31 1020.3
20220627184133 24 89 3.2 4.8 0.00 0.00 0.00 31 1020.3
20220627183631 24 89 3.2 4.8 0.00 0.00 0.00 31 1020.4
20220627183130 24 89 3.2 4.8 0.00 0.00 0.00 28 1020.4
20220627182630 24 90 3.2 4.8 0.00 0.00 0.00 30 1020.6
20220627182130 24 83 3.2 4.8 0.00 0.00 0.00 29 1020.6
20220627181631 24 83 3.2 4.8 0.00 0.00 0.00 31 1020.8
20220627181130 24 83 3.2 4.8 0.00 0.00 0.00 31 1020.8
20220627180630 24 83 3.2 4.8 0.00 0.00 0.00 29 1020.8
20220627180130 24 81 3.2 6.4 0.00 0.00 0.00 33 1020.9
20220627175630 23 80 1.6 6.4 0.00 0.00 0.00 31 1020.9
20220627175130 23 84 1.6 6.4 0.00 0.00 0.00 33 1020.9
20220627174630 23 69 1.6 4.8 0.00 0.00 0.00 34 1021.0
20220627174130 23 82 1.6 4.8 0.00 0.00 0.00 36 1021.0
20220627173630 23 63 1.6 4.8 0.00 0.00 0.00 33 1021.1
20220627173129 23 66 3.2 4.8 0.00 0.00 0.00 34 1021.1
20220627172630 23 84 3.2 4.8 0.00 0.00 0.00 33 1021.2
20220627172130 23 76 1.6 4.8 0.00 0.00 0.00 32 1021.1
20220627171631 22 84 1.6 6.4 0.00 0.00 0.00 34 1021.1
20220627171129 22 100 1.6 6.4 0.00 0.00 0.00 35 1021.2
20220627170630 22 76 1.6 4.8 0.00 0.00 0.00 36 1021.2
20220627170131 21 56 1.6 4.8 0.00 0.00 0.00 38 1021.2
20220627165630 21 23 1.6 4.8 0.00 0.00 0.00 38 1021.3
20220627165129 21 24 1.6 4.8 0.00 0.00 0.00 37 1021.3
20220627164630 21 38 1.6 3.2 0.00 0.00 0.00 39 1021.5
20220627164130 21 67 1.6 6.4 0.00 0.00 0.00 39 1021.8
20220627163631 21 70 3.2 6.4 0.00 0.00 0.00 39 1021.8
20220627163129 21 88 3.2 4.8 0.00 0.00 0.00 38 1021.8
20220627162630 21 84 3.2 4.8 0.00 0.00 0.00 40 1021.8
20220627162130 21 84 3.2 6.4 0.00 0.00 0.00 39 1022.0
20220627161630 21 82 3.2 6.4 0.00 0.00 0.00 37 1021.9
20220627161130 21 86 1.6 6.4 0.00 0.00 0.00 38 1022.0
20220627160630 20 82 1.6 6.4 0.00 0.00 0.00 36 1022.0
20220627160130 20 63 1.6 8.0 0.00 0.00 0.00 38 1022.0
20220627155631 20 76 1.6 8.0 0.00 0.00 0.00 38 1021.9
20220627155130 20 73 1.6 4.8 0.00 0.00 0.00 39 1022.0
20220627154630 20 81 1.6 4.8 0.00 0.00 0.00 39 1022.1
20220627154130 20 84 1.6 4.8 0.00 0.00 0.00 41 1022.1
20220627153630 20 88 1.6 3.2 0.00 0.00 0.00 42 1022.2
20220627153131 19 88 1.6 3.2 0.00 0.00 0.00 42 1022.2
20220627152631 19 88 1.6 4.8 0.00 0.00 0.00 43 1022.3
20220627152133 18 90 1.6 4.8 0.00 0.00 0.00 44 1022.3
20220627151635 18 84 1.6 3.2 0.00 0.00 0.00 47 1022.4
20220627151133 18 84 1.6 3.2 0.00 0.00 0.00 48 1022.4
20220627150633 17 84 1.6 4.8 0.00 0.00 0.00 48 1022.3
20220627150134 17 90 1.6 4.8 0.00 0.00 0.00 49 1022.4
20220627145637 17 78 1.6 4.8 0.00 0.00 0.00 49 1022.4
20220627145134 16 75 1.6 6.4 0.00 0.00 0.00 50 1022.6
20220627144633 16 83 1.6 6.4 0.00 0.00 0.00 49 1022.6
20220627144133 16 84 1.6 4.8 0.00 0.00 0.00 51 1022.6
20220627143633 15 89 3.2 4.8 0.00 0.00 0.00 52 1022.6
20220627143133 15 89 3.2 6.4 0.00 0.00 0.00 50 1022.7
20220627142633 15 88 3.2 6.4 0.00 0.00 0.00 51 1022.6
20220627142134 15 96 3.2 6.4 0.00 0.00 0.00 51 1022.6
20220627141633 15 87 1.6 4.8 0.00 0.00 0.00 53 1022.6
20220627141133 15 80 1.6 4.8 0.00 0.00 0.00 55 1022.6
20220627140636 14 78 1.6 4.8 0.00 0.00 0.00 56 1022.6
20220627140133 13 69 1.6 4.8 0.00 0.00 0.00 59 1022.6
20220627135634 13 69 1.6 6.4 0.00 0.00 0.00 59 1022.6
20220627135134 13 55 1.6 6.4 0.00 0.00 0.00 61 1022.6
20220627134631 13 81 3.2 6.4 0.00 0.00 0.00 62 1022.5
20220627134132 12 84 3.2 6.4 0.00 0.00 0.00 65 1022.5
20220627133632 12 105 1.6 6.4 0.00 0.00 0.00 64 1022.5
20220627133130 12 192 1.6 4.8 0.00 0.00 0.00 67 1022.4
20220627132630 12 215 1.6 4.8 0.00 0.00 0.00 68 1022.4
20220627132130 11 223 1.6 4.8 0.00 0.00 0.00 70 1022.4
20220627131630 10 234 0.0 3.2 0.00 0.00 0.00 72 1022.5
20220627131130 9 234 0.0 1.6 0.00 0.00 0.00 72 1022.5
20220627130630 9 234 0.0 3.2 0.00 0.00 0.00 70 1022.5
20220627130131 9 234 1.6 3.2 0.00 0.00 0.00 71 1022.4
20220627125630 9 234 1.6 4.8 0.00 0.00 0.00 70 1022.5
20220627125130 9 233 0.0 4.8 0.00 0.00 0.00 70 1022.4
20220627124630 10 217 0.0 1.6 0.00 0.00 0.00 69 1022.3
20220627124130 10 217 1.6 3.2 0.00 0.00 0.00 70 1022.3
20220627123631 10 217 1.6 3.2 0.00 0.00 0.00 71 1022.3
20220627123130 10 217 1.6 3.2 0.00 0.00 0.00 72 1022.3
20220627122630 10 217 1.6 4.8 0.00 0.00 0.00 71 1022.3
20220627122130 10 218 1.6 4.8 0.00 0.00 0.00 72 1022.4
20220627121630 9 224 0.0 4.8 0.00 0.00 0.00 73 1022.2
20220627121130 9 233 0.0 0.0 0.00 0.00 0.00 71 1022.2
20220627120630 9 233 0.0 0.0 0.00 0.00 0.00 69 1022.1
20220627120130 9 233 0.0 3.2 0.00 0.00 0.00 69 1022.1
20220627115631 9 233 0.0 4.8 0.00 0.00 0.00 70 1022.1
20220627115131 10 233 0.0 4.8 0.00 0.00 0.00 68 1022.1
20220627114632 10 194 0.0 0.0 0.00 0.00 0.00 66 1022.1
20220627114132 10 194 0.0 0.0 0.00 0.00 0.00 66 1022.1
20220627113631 10 194 0.0 0.0 0.00 0.00 0.00 66 1022.1
20220627113132 10 194 0.0 0.0 0.00 0.00 0.00 67 1022.2
20220627112632 10 194 0.0 0.0 0.00 0.00 0.00 68 1022.2
20220627112132 10 194 0.0 0.0 0.00 0.00 0.00 69 1022.2
20220627111632 10 194 0.0 0.0 0.00 0.00 0.00 68 1022.2
20220627111132 10 194 0.0 0.0 0.00 0.00 0.00 68 1022.2
20220627110631 10 194 0.0 0.0 0.00 0.00 0.00 69 1022.1
20220627110131 10 194 0.0 0.0 0.00 0.00 0.00 70 1022.0
20220627105631 10 194 0.0 0.0 0.00 0.00 0.00 70 1022.0
20220627105130 10 194 0.0 0.0 0.00 0.00 0.00 71 1021.9
20220627104630 10 194 0.0 0.0 0.00 0.00 0.00 71 1021.9
20220627104130 10 194 0.0 0.0 0.00 0.00 0.00 71 1021.9
20220627103630 10 194 0.0 0.0 0.00 0.00 0.00 70 1021.9
20220627103130 10 194 0.0 0.0 0.00 0.00 0.00 70 1021.9
20220627102630 10 194 0.0 0.0 0.00 0.00 0.00 70 1021.9
20220627102129 10 194 0.0 0.0 0.00 0.00 0.00 70 1021.9
20220627101631 10 194 0.0 0.0 0.00 0.00 0.00 70 1021.6
20220627101130 10 194 0.0 0.0 0.00 0.00 0.00 70 1021.5
20220627100631 11 194 0.0 0.0 0.00 0.00 0.00 67 1021.8
20220627100130 11 194 0.0 0.0 0.00 0.00 0.00 67 1021.8
20220627095630 11 194 0.0 0.0 0.00 0.00 0.00 67 1021.6
20220627095129 11 194 0.0 0.0 0.00 0.00 0.00 68 1021.8
20220627094630 11 194 0.0 0.0 0.00 0.00 0.00 69 1021.6
20220627094130 11 194 0.0 0.0 0.00 0.00 0.00 68 1021.8
20220627093630 11 194 0.0 0.0 0.00 0.00 0.00 67 1021.6
20220627093130 11 194 0.0 0.0 0.00 0.00 0.00 67 1021.6
20220627092632 11 194 0.0 0.0 0.00 0.00 0.00 67 1021.5
20220627092131 11 194 0.0 0.0 0.00 0.00 0.00 66 1021.5
20220627091631 11 194 0.0 0.0 0.00 0.00 0.00 67 1021.5
20220627091132 11 194 0.0 0.0 0.00 0.00 0.00 69 1021.5
20220627090632 11 194 0.0 0.0 0.00 0.00 0.00 68 1021.6
20220627090131 11 194 0.0 0.0 0.00 0.00 0.00 68 1021.6
20220627085631 11 194 0.0 0.0 0.00 0.00 0.00 69 1021.5
20220627085131 11 194 0.0 0.0 0.00 0.00 0.00 70 1021.5
20220627084631 11 194 0.0 0.0 0.00 0.00 0.00 70 1021.5
20220627084126 11 194 0.0 0.0 0.00 0.00 0.00 70 1021.4
20220627083626 11 194 0.0 0.0 0.00 0.00 0.00 71 1021.3
20220627083126 11 194 0.0 0.0 0.00 0.00 0.00 71 1021.3
20220627082627 12 194 0.0 0.0 0.00 0.00 0.00 70 1021.2
20220627082126 12 194 0.0 0.0 0.00 0.00 0.00 69 1021.2
20220627081626 12 194 0.0 0.0 0.00 0.00 0.00 69 1021.2
20220627081126 12 194 0.0 0.0 0.00 0.00 0.00 69 1021.2
20220627080629 12 194 0.0 0.0 0.00 0.00 0.00 69 1021.2
20220627080126 12 194 0.0 0.0 0.00 0.00 0.00 69 1021.2
20220627075622 12 194 0.0 0.0 0.00 0.00 0.00 68 1021.2
20220627075122 12 194 0.0 0.0 0.00 0.00 0.00 68 1021.2
20220627074622 12 194 0.0 0.0 0.00 0.00 0.00 67 1021.2
20220627074121 13 194 0.0 0.0 0.00 0.00 0.00 68 1021.1
20220627073623 13 194 0.0 0.0 0.00 0.00 0.00 67 1021.3
20220627073122 13 194 0.0 0.0 0.00 0.00 0.00 67 1021.3
20220627072622 13 194 0.0 0.0 0.00 0.00 0.00 66 1021.2
20220627072122 13 194 0.0 0.0 0.00 0.00 0.00 66 1021.3
20220627071622 13 194 0.0 0.0 0.00 0.00 0.00 66 1021.2
20220627071122 13 194 0.0 0.0 0.00 0.00 0.00 67 1021.2
20220627070621 13 194 0.0 0.0 0.00 0.00 0.00 67 1021.3
20220627070122 13 194 0.0 0.0 0.00 0.00 0.00 66 1021.3
20220627065621 13 194 0.0 0.0 0.00 0.00 0.00 66 1021.2
20220627065122 13 194 0.0 0.0 0.00 0.00 0.00 65 1021.3
20220627064622 13 194 0.0 3.2 0.00 0.00 0.00 64 1021.3
20220627064122 13 194 0.0 3.2 0.00 0.00 0.00 62 1021.2
20220627063621 14 194 0.0 1.6 0.00 0.00 0.00 61 1021.2
20220627063122 14 194 0.0 0.0 0.00 0.00 0.00 61 1021.2
20220627062622 14 194 0.0 3.2 0.00 0.00 0.00 61 1021.2
20220627062119 14 194 1.6 3.2 0.00 0.00 0.00 61 1021.3
20220627061620 14 194 0.0 1.6 0.00 0.00 0.00 62 1021.3
20220627061119 15 194 0.0 0.0 0.00 0.00 0.00 63 1021.3
20220627060619 15 0 0.0 0.0 0.00 0.00 0.00 62 1021.3
20220627060117 15 194 1.6 3.2 0.00 0.00 0.00 61 1021.3
20220627055615 15 194 1.6 3.2 0.00 0.00 0.00 62 1021.4
20220627055113 15 194 0.0 3.2 0.00 0.00 0.00 63 1021.4
20220627054611 15 194 0.0 3.2 0.00 0.00 0.00 63 1021.4
20220627054109 15 194 0.0 3.2 0.00 0.00 0.00 64 1021.4
20220627053609 15 194 0.0 3.2 0.00 0.00 0.00 63 1021.3
20220627053109 15 194 0.0 0.0 0.00 0.00 0.00 63 1021.3
20220627052609 15 194 0.0 1.6 0.00 0.00 0.00 63 1021.1
20220627052109 15 194 0.0 1.6 0.00 0.00 0.00 63 1021.1
20220627051609 15 194 1.6 3.2 0.00 0.00 0.00 61 1021.2
20220627051109 16 194 0.0 3.2 0.00 0.00 0.00 61 1021.1
20220627050609 16 189 0.0 0.0 0.00 0.00 0.00 61 1021.1
20220627050109 16 189 0.0 0.0 0.00 0.00 0.00 60 1021.1
20220627045606 16 189 0.0 0.0 0.00 0.00 0.00 59 1021.0
20220627045107 16 189 0.0 0.0 0.00 0.00 0.00 59 1021.1
20220627044607 16 189 0.0 1.6 0.00 0.00 0.00 57 1021.2
20220627044105 17 189 0.0 1.6 0.00 0.00 0.00 58 1021.1
20220627043605 17 189 0.0 1.6 0.00 0.00 0.00 58 1021.1
20220627043105 17 189 0.0 1.6 0.00 0.00 0.00 57 1021.2
20220627042603 17 189 0.0 0.0 0.00 0.00 0.00 60 1021.1
20220627042103 17 189 0.0 0.0 0.00 0.00 0.00 58 1021.1
20220627041601 18 189 0.0 0.0 0.00 0.00 0.00 57 1021.1
20220627041102 18 189 0.0 1.6 0.00 0.00 0.00 57 1020.9
20220627040602 18 189 0.0 1.6 0.00 0.00 0.00 57 1021.0
20220627040102 18 189 0.0 0.0 0.00 0.00 0.00 57 1021.0
20220627035602 18 189 0.0 1.6 0.00 0.00 0.00 56 1020.9
20220627035103 19 189 0.0 1.6 0.00 0.00 0.00 53 1020.8
20220627034603 19 189 0.0 1.6 0.00 0.00 0.00 51 1020.8
20220627034102 20 189 0.0 1.6 0.00 0.00 0.00 51 1020.8
20220627033602 20 189 0.0 1.6 0.00 0.00 0.00 47 1020.9
20220627033102 20 189 0.0 1.6 0.00 0.00 0.00 47 1020.8
20220627032602 21 189 0.0 0.0 0.00 0.00 0.00 49 1020.8
20220627032103 21 189 0.0 3.2 0.00 0.00 0.00 50 1020.8
20220627031602 21 189 0.0 3.2 0.00 0.00 0.00 47 1020.8
20220627031103 22 189 0.0 1.6 0.00 0.00 0.00 44 1020.7
20220627030602 22 189 0.0 0.0 0.00 0.00 0.00 30 1020.8
20220627030103 22 189 0.0 3.2 0.00 0.00 0.00 30 1020.7
20220627025602 22 189 0.0 3.2 0.00 0.00 0.00 31 1020.8
20220627025103 22 189 1.6 3.2 0.00 0.00 0.00 31 1020.8
20220627024602 23 188 1.6 3.2 0.00 0.00 0.00 30 1020.8
20220627024103 23 188 1.6 3.2 0.00 0.00 0.00 28 1020.9
20220627023602 23 188 0.0 3.2 0.00 0.00 0.00 28 1020.9
20220627023103 23 188 0.0 1.6 0.00 0.00 0.00 30 1020.9
20220627022603 24 188 0.0 1.6 0.00 0.00 0.00 30 1020.9
20220627022102 24 188 0.0 1.6 0.00 0.00 0.00 29 1020.9
20220627021602 25 189 0.0 1.6 0.00 0.00 0.00 29 1021.0
20220627021102 25 188 0.0 1.6 0.00 0.00 0.00 27 1020.9
20220627020602 25 188 0.0 1.6 0.00 0.00 0.00 25 1021.0
20220627020103 25 188 0.0 1.6 0.00 0.00 0.00 26 1021.0
20220627015602 26 187 0.0 1.6 0.00 0.00 0.00 26 1021.1
20220627015102 26 187 0.0 1.6 0.00 0.00 0.00 25 1021.0
20220627014602 26 187 0.0 1.6 0.00 0.00 0.00 24 1021.0
20220627014103 27 188 0.0 1.6 0.00 0.00 0.00 23 1021.0
20220627013602 26 187 0.0 3.2 0.00 0.00 0.00 24 1021.0
20220627013102 26 187 0.0 3.2 0.00 0.00 0.00 24 1021.0
20220627012602 26 187 1.6 3.2 0.00 0.00 0.00 23 1021.0
20220627012103 26 187 1.6 6.4 0.00 0.00 0.00 22 1020.9
20220627011602 26 187 1.6 6.4 0.00 0.00 0.00 20 1021.0
20220627011106 26 148 1.6 4.8 0.00 0.00 0.00 21 1020.9
20220627010605 26 125 1.6 4.8 0.00 0.00 0.00 23 1020.9
20220627010105 26 194 1.6 4.8 0.00 0.00 0.00 22 1020.9
20220627005605 26 210 3.2 8.0 0.00 0.00 0.00 23 1020.9
20220627005107 26 211 3.2 9.7 0.00 0.00 0.00 20 1020.9
20220627004606 26 226 1.6 9.7 0.00 0.00 0.00 20 1021.0
20220627004106 25 184 1.6 4.8 0.00 0.00 0.00 19 1021.0
20220627003605 25 189 3.2 9.7 0.00 0.00 0.00 22 1021.1
20220627003105 25 245 4.8 9.7 0.00 0.00 0.00 19 1021.1
20220627002605 25 217 4.8 9.7 0.00 0.00 0.00 18 1021.2
20220627002106 25 172 3.2 9.7 0.00 0.00 0.00 20 1021.2
20220627001605 26 218 1.6 9.7 0.00 0.00 0.00 18 1021.3
20220627001105 25 209 3.2 8.0 0.00 0.00 0.00 19 1021.4
20220627000605 25 227 4.8 11.3 0.00 0.00 0.00 20 1021.4
20220627000105 25 187 3.2 11.3 0.00 0.00 0.00 23 1021.5
20220626235605 25 207 1.6 6.4 0.00 0.00 0.00 22 1021.6
20220626235105 25 141 3.2 4.8 0.00 0.00 0.00 21 1021.6
20220626234604 24 141 3.2 4.8 0.00 0.00 0.00 18 1021.6
20220626234106 25 141 3.2 4.8 0.00 0.00 0.00 23 1021.6
20220626233605 25 141 3.2 8.0 0.00 0.00 0.00 21 1021.8
20220626233105 25 141 3.2 9.7 0.00 0.00 0.00 17 1021.8
20220626232604 25 107 4.8 9.7 0.00 0.00 0.00 22 1021.8
20220626232105 25 104 3.2 6.4 0.00 0.00 0.00 19 1021.9
20220626231606 25 95 3.2 4.8 0.00 0.00 0.00 20 1022.0
20220626231055 25 92 3.2 4.8 0.00 0.00 0.00 17 1022.0
20220626230550 24 91 3.2 4.8 0.00 0.00 0.00 18 1022.0
20220626230044 25 91 3.2 6.4 0.00 0.00 0.00 17 1022.1
20220626225538 25 91 3.2 6.4 0.00 0.00 0.00 18 1022.1
20220626225035 25 89 3.2 6.4 0.00 0.00 0.00 15 1022.2
20220626224533 26 84 1.6 4.8 0.00 0.00 0.00 14 1022.2
20220626224033 27 72 1.6 4.8 0.00 0.00 0.00 13 1022.3
20220626223534 27 72 1.6 4.8 0.00 0.00 0.00 12 1022.4
20220626223033 27 73 1.6 3.2 0.00 0.00 0.00 13 1022.4
20220626222534 27 76 1.6 3.2 0.00 0.00 0.00 13 1022.5
20220626222034 26 94 1.6 3.2 0.00 0.00 0.00 15 1022.5
20220626221533 26 100 1.6 4.8 0.00 0.00 0.00 15 1022.5
20220626221034 26 99 1.6 4.8 0.00 0.00 0.00 16 1022.5
20220626220533 25 99 1.6 4.8 0.00 0.00 0.00 20 1022.5
20220626220034 25 100 1.6 4.8 0.00 0.00 0.00 19 1022.6
20220626215533 25 100 1.6 3.2 0.00 0.00 0.00 20 1022.6
20220626215033 24 100 3.2 3.2 0.00 0.00 0.00 17 1022.7
20220626214533 25 100 3.2 3.2 0.00 0.00 0.00 18 1022.7
20220626214032 25 100 1.6 3.2 0.00 0.00 0.00 17 1022.8
20220626213533 25 100 0.0 3.2 0.00 0.00 0.00 15 1022.8
20220626213033 25 100 1.6 4.8 0.00 0.00 0.00 16 1023.0
20220626212530 24 100 3.2 4.8 0.00 0.00 0.00 18 1023.0
20220626212031 23 103 3.2 6.4 0.00 0.00 0.00 22 1023.0
20220626211531 23 103 3.2 6.4 0.00 0.00 0.00 21 1023.1
20220626211030 24 103 3.2 6.4 0.00 0.00 0.00 20 1023.1
20220626210531 25 92 3.2 6.4 0.00 0.00 0.00 17 1023.2
20220626210030 25 90 3.2 8.0 0.00 0.00 0.00 18 1023.3
20220626205531 25 68 1.6 8.0 0.00 0.00 0.00 20 1023.3
20220626205030 24 95 3.2 6.4 0.00 0.00 0.00 20 1023.3
20220626204530 24 103 3.2 6.4 0.00 0.00 0.00 19 1023.4
20220626204030 23 107 3.2 9.7 0.00 0.00 0.00 19 1023.4
20220626203530 23 126 1.6 9.7 0.00 0.00 0.00 19 1023.5
20220626203030 23 105 3.2 6.4 0.00 0.00 0.00 23 1023.5
20220626202531 22 105 4.8 6.4 0.00 0.00 0.00 24 1023.6
20220626202030 23 103 3.2 6.4 0.00 0.00 0.00 30 1023.5
20220626201533 23 103 3.2 11.3 0.00 0.00 0.00 27 1023.6